Weather History for Morristown, NJ

Change the Weather History Date:

Sunday, May 19, 2013

  Actual Average Record
Temperature  
Mean Temperature 57 °F -  
Max Temperature 59 °F 72 °F 93 °F (1962)
Min Temperature 55 °F 50 °F 32 °F (1941)
Degree Days  
Heating Degree Days 8    
Growing Degree Days 7 (Base 50)    
Moisture  
Dew Point 55 °F    
Average Humidity 91    
Maximum Humidity 100    
Minimum Humidity 82    
Precipitation  
Precipitation 0.10 in - - ()
Sea Level Pressure  
Sea Level Pressure 30.26 in    
Wind  
Wind Speed 1 mph (SE)    
Max Wind Speed 7 mph    
Max Gust Speed -    
Visibility 4 miles    
Events Fog , Rain    
Averages and records for this station are not official NWS values.
T = Trace of Precipitation, MM = Missing Value Source: NWS Daily Summary

Daily Weather History Graph

Daily Weather History Graph

Search for Another Location

Airport:

Trip Planner

Search our weather history database for the weather conditions in past years. The results will help you decide how hot, cold, wet, or windy it might be!

Date:

Astronomy

May. 19, 2013 Rise Set
Actual Time 5:36 AM EDT 8:12 PM EDT
Civil Twilight 5:05 AM EDT 8:43 PM EDT
Nautical Twilight 4:25 AM EDT 9:23 PM EDT
Astronomical Twilight 3:41 AM EDT 10:07 PM EDT
Moon 2:11 PM EDT (5/19) 2:01 AM EDT (5/19)
Length of Visible Light 15h 38m
Length of Day
14h 35m
Waxing Gibbous, 65% of the Moon is Illuminated
May 19
Waxing Gibbous
May 25
Full
May 31
Last Quarter
Jun 8
New
Jun 16
First Quarter

Hourly Weather History & Observations

Time (EDT) Temp. Dew Point Humidity Pressure Visibility Wind Dir Wind Speed Gust Speed Precip Events Conditions
12:15 AM 59.0 °F 55.4 °F 88% 30.30 in 10.0 mi Calm Calm - N/A   Overcast
12:35 AM 59.0 °F 55.4 °F 88% 30.30 in 10.0 mi Calm Calm - N/A   Overcast
12:55 AM 59.0 °F 55.4 °F 88% 30.30 in 10.0 mi Calm Calm - N/A   Overcast
1:15 AM 59.0 °F 53.6 °F 82% 30.29 in 7.0 mi Calm Calm - N/A   Overcast
1:35 AM 59.0 °F 53.6 °F 82% 30.29 in 4.0 mi Calm Calm - N/A Rain Rain
1:55 AM 59.0 °F 55.4 °F 88% 30.28 in 10.0 mi Calm Calm - N/A   Drizzle
2:15 AM 59.0 °F 55.4 °F 88% 30.28 in 7.0 mi Calm Calm - N/A   Drizzle
2:35 AM 59.0 °F 55.4 °F 88% 30.28 in 4.0 mi Calm Calm - N/A Rain Rain
2:55 AM 59.0 °F 55.4 °F 88% 30.27 in 4.0 mi Calm Calm - N/A   Drizzle
3:15 AM 59.0 °F 55.4 °F 88% 30.28 in 3.0 mi Calm Calm - 0.01 in   Drizzle
3:35 AM 59.0 °F 55.4 °F 88% 30.27 in 4.0 mi Calm Calm - 0.01 in Rain Heavy Rain
3:55 AM 59.0 °F 55.4 °F 88% 30.28 in 5.0 mi South 3.5 mph - N/A Rain Rain
4:15 AM 59.0 °F 55.4 °F 88% 30.27 in 4.0 mi SSE 3.5 mph - 0.01 in   Drizzle
4:35 AM 57.2 °F 55.4 °F 94% 30.28 in 2.5 mi Calm Calm - 0.02 in Rain Heavy Rain
4:55 AM 57.2 °F 53.6 °F 88% 30.27 in 4.0 mi Calm Calm - N/A   Drizzle
5:15 AM 57.2 °F 53.6 °F 88% 30.28 in 5.0 mi Calm Calm - 0.02 in   Light Drizzle
5:35 AM 57.2 °F 53.6 °F 88% 30.28 in 5.0 mi Calm Calm - 0.03 in Rain Heavy Rain
5:55 AM 57.2 °F 53.6 °F 88% 30.29 in 5.0 mi Calm Calm - N/A   Drizzle
6:15 AM 57.2 °F 53.6 °F 88% 30.29 in 3.0 mi Calm Calm - 0.02 in   Heavy Drizzle
6:35 AM 57.2 °F 53.6 °F 88% 30.29 in 3.0 mi Calm Calm - 0.04 in   Heavy Drizzle
6:45 AM 55.4 °F 53.6 °F 94% 30.30 in 2.5 mi Calm Calm - N/A   Heavy Drizzle
7:45 AM 55.4 °F 53.6 °F 94% 30.30 in 2.5 mi Calm Calm - N/A Rain Light Rain
8:45 AM 55.4 °F 55.4 °F 100% 30.31 in 2.5 mi SE 3.5 mph - N/A Rain Light Rain
9:45 AM 57.2 °F 55.4 °F 94% 30.31 in 2.0 mi East 4.6 mph - N/A Rain Light Rain
10:45 AM 57.2 °F 55.4 °F 94% 30.31 in 2.5 mi ESE 6.9 mph - N/A   Drizzle
11:45 AM 57.2 °F 55.4 °F 94% 30.31 in 2.5 mi ESE 5.8 mph - N/A   Heavy Drizzle
12:45 PM 57.2 °F 55.4 °F 94% 30.29 in 2.5 mi ESE 5.8 mph - N/A Rain Light Rain
1:45 PM 57.2 °F 55.4 °F 94% 30.25 in 2.5 mi SSE 5.8 mph - N/A   Light Drizzle
2:45 PM 57.2 °F 55.4 °F 94% 30.26 in 2.5 mi SSE 5.8 mph - N/A   Drizzle
3:45 PM 57.2 °F 55.4 °F 94% 30.24 in 2.0 mi SE 6.9 mph - N/A   Drizzle
4:45 PM 57.2 °F 55.4 °F 94% 30.23 in 2.0 mi SE 5.8 mph - N/A   Overcast
5:45 PM 57.2 °F 55.4 °F 94% 30.22 in 2.0 mi ESE 4.6 mph - N/A   Overcast
6:45 PM 57.2 °F 55.4 °F 94% 30.22 in 2.0 mi East 4.6 mph - N/A   Overcast
7:45 PM 57.2 °F 55.4 °F 94% 30.22 in 2.0 mi SE 4.6 mph - N/A   Overcast
8:45 PM 57.2 °F 55.4 °F 94% 30.18 in 2.0 mi Calm Calm - N/A   Overcast
9:45 PM 57.2 °F 55.4 °F 94% 30.19 in 2.0 mi Calm Calm - N/A   Overcast
10:55 PM 59.0 °F 57.2 °F 94% 30.20 in 2.5 mi NE 3.5 mph - N/A   Overcast
11:15 PM 59.0 °F 57.2 °F 94% 30.20 in 2.0 mi Calm Calm - N/A   Overcast
11:35 PM 59.0 °F 57.2 °F 94% 30.19 in 1.0 mi Calm Calm - N/A   Overcast
11:55 PM 59.0 °F 57.2 °F 94% 30.19 in 0.5 mi Calm Calm - N/A Fog Fog